User: anonymous   Login
Location: *
(50.5492°N, 7.7469°E)
Time: 02:46:48
(UTC+00:00)
Language:

STARLINK-48 - Orbit

View from above orbital plane
View from above orbital plane
View from above satellite
View from above satellite

Ground track
Ground track

The orbit data is extracted from the following two-line orbital elements,

1 44289U 19029BG  19344.83334491  .00435076  00000-0  19117-1 0  9999
2 44289  53.0007 333.3661 0001451  40.6017 228.7428 15.19414276 31690
Epoch (UTC): 10 December 2019 20:00:01
Eccentricity: 0.0001451
inclination: 53.0007°
perigee height: 506 km
apogee height: 508 km
right ascension of ascending node: 333.3661°
argument of perigee: 40.6017°
revolutions per day: 15.19414276
mean anomaly at epoch: 228.7428°
orbit number at epoch: 3169

The dashed part of the orbit path shows where the satellite is in the earth's shadow,  

DLR